Volver al catálogo

FENGYUN 1C DEB

ActivoPO
NORAD 32326·DEBRIS·🇨🇳 China

Lanzado May 10, 1999 desde Taiyuan Satellite Launch Center

Loading…

Próximos Pases (próximas 24 horas)

TLE

EnvejeciendoSource: Space-Track

Época: Sep 5, 2026, 04:32 UTC

1 32326U 99025CXT 26248.18896348  .00000313  00000-0  23567-3 0  9993
2 32326  98.4853 151.8874 0385283 147.3430 215.2188 13.69665260668292

Sigue FENGYUN 1C DEB en tiempo real con AllMySat

Download on the App Store